Flag for Cambodia Weather past 2 weeks in Phnom Penh, Cambodia

Now
81 °F

Clear.


Feels Like: 87 °F
Forecast: 80 / 99 °F
Wind: 5 mph from Southeast

Location: Phnom-Penh / Pochentong

Current Time: Apr 22, 2015 at 6:28:07 AM

Latest Report: Apr 22, 2015 at 6:00 AM


Visibility: 5 mi

Pressure: 29.77 "Hg

Humidity: 89%

Dew point: 77 °F

Location of Phnom PenhLocation

Historic Weather in Phnom Penh — Graph

°F

Phnom Penh temperature yesterday

Maximum temperature yesterday: 104 °F (at 4:30 PM)
Minimum temperature yesterday: 81 °F (at 6:00 AM)
Average temperature yesterday: 93 °F

Past Weeks' High & Low Weather Summary

 TemperatureHumidityPressure
High104 °F (Apr 20, 3:00 PM)94% (Apr 12, 6:00 AM)29.95 "Hg (Apr 12, 6:00 AM)
Low77 °F (Apr 12, 6:00 AM)28% (Apr 15, 4:00 PM)29.62 "Hg (Apr 21, 3:30 PM)
Average89 °F58%29.80 "Hg
* Reported Apr 7 1:00 AM — Apr 22 1:00 AM, Phnom Penh, Weather by CustomWeather, © 2015

Note: Actual official high and low records may vary slightly from our data, if they occured in-between our weather recording intervals... More about our weather records

Advertising

Phnom Penh weather history for previous 24 hours

 ConditionsComfort  
Time TempWeatherWind HumidityBarometerVisibility
1:00 AM
Wed, Apr 22
86 °FPassing clouds.9 mph79%29.77 "Hg6 mi
12:30 AM84 °FPassing clouds.10 mph84%29.77 "Hg6 mi
12:00 AM86 °FPassing clouds.7 mph79%29.77 "Hg6 mi
11:30 PM
Tue, Apr 21
86 °FPassing clouds.6 mph79%29.74 "Hg6 mi
11:00 PM86 °FPassing clouds.8 mph79%29.74 "Hg6 mi
10:30 PM88 °FPassing clouds.6 mph75%29.74 "Hg6 mi
10:00 PM88 °FPassing clouds.6 mph70%29.74 "Hg6 mi
9:30 PM90 °FPassing clouds.6 mph67%29.74 "Hg6 mi
9:00 PM90 °FPassing clouds.8 mph67%29.71 "Hg6 mi
8:30 PM91 °FPassing clouds.8 mph59%29.71 "Hg6 mi
8:00 PM91 °FPassing clouds.9 mph59%29.68 "Hg6 mi
7:30 PM93 °FPassing clouds.9 mph53%29.68 "Hg6 mi
7:00 PM93 °FPassing clouds.9 mph53%29.65 "Hg6 mi
6:30 PM95 °FPassing clouds.9 mph47%29.65 "HgN/A
6:00 PM97 °FPassing clouds.8 mph44%29.65 "HgN/A
5:30 PM99 °FScattered clouds.8 mph39%29.62 "HgN/A
5:00 PM100 °FScattered clouds.8 mph37%29.62 "HgN/A
4:30 PM104 °FScattered clouds.3 mph31%29.62 "HgN/A
4:00 PM102 °FScattered clouds.3 mph33%29.62 "HgN/A
3:30 PM102 °FScattered clouds.3 mph33%29.62 "HgN/A
3:00 PM102 °FPassing clouds.2 mph35%29.65 "HgN/A
2:30 PM102 °FPassing clouds.6 mph35%29.65 "HgN/A
2:00 PM100 °FPassing clouds.1 mph35%29.68 "HgN/A
1:30 PM100 °FPassing clouds.3 mph35%29.68 "HgN/A
1:00 PM102 °FPassing clouds.3 mph31%29.71 "HgN/A
12:30 PM100 °FPassing clouds.3 mph33%29.74 "HgN/A
12:00 PM100 °FPassing clouds.5 mph35%29.74 "HgN/A
11:30 AM99 °FSunny.2 mph37%29.77 "Hg10 mi
11:00 AM99 °FSunny.3 mph35%29.77 "Hg10 mi
10:00 AM93 °FPassing clouds.5 mph47%29.80 "HgN/A
9:30 AM91 °FSunny.3 mph49%29.80 "Hg10 mi
9:00 AM91 °FSunny.2 mph56%29.80 "Hg10 mi
8:30 AM90 °FSunny.3 mph59%29.80 "Hg10 mi
8:00 AM88 °FPassing clouds.5 mph66%29.80 "HgN/A
7:00 AM82 °FPassing clouds.2 mph79%29.77 "HgN/A
6:30 AM82 °FPassing clouds.3 mph79%29.77 "HgN/A
6:00 AM81 °FPassing clouds.5 mph84%29.74 "HgN/A
Weather by CustomWeather, © 2015

See weather overviewHow to use our weather pages